Tracking 20621 objects as of 29-Mar-2020
HD Live streaming from Space Station
objects crossing your sky now

BREEZE-M DEB (TANK)

Track BREEZE-M DEB (TANK) now!


NORAD ID: 38979
Int'l Code: 2012-061C
Perigee: 690.2 km
Apogee: 35,360.9 km
Inclination: 48.2 °
Period: 632.1 minutes
Semi major axis: 24396 km
RCS: 7.6752 m2 (large)
Launch date: November 2, 2012
Source: Commonwealth of Independent States (former USSR) (CIS)
Launch site: TYURATAM MISSILE AND SPACE COMPLEX (TTMTR)

Note: This is SATELLITE DEBRIS
aabbcc
Your satellite tracking list
Your tracking list is empty




NASA's NSSDC Master Catalog

Two Line Element Set (TLE):
1 38979U 12061C   20087.98163649 -.00000149  00000-0 -11326-2 0  9990
2 38979  48.1689  20.6407 7105641 289.4788  10.7514  2.27829314 61163
Source of the keplerian elements: AFSPC